TimeCDT,TemperatureF,Dew PointF,Humidity,Sea Level PressureIn,VisibilityMPH,Wind Direction,Wind SpeedMPH,Gust SpeedMPH,PrecipitationIn,Events,Conditions,WindDirDegrees,DateUTC
12:53 AM,78.1,73.0,84,30.02,4.0,WSW,6.9,-,N/A,,Haze,240,2013-09-12 05:53:00
1:53 AM,73.0,71.1,93,30.01,4.0,South,4.6,-,N/A,,Clear,170,2013-09-12 06:53:00
2:53 AM,72.0,71.1,97,30.00,3.0,South,6.9,-,N/A,,Clear,190,2013-09-12 07:53:00
3:53 AM,71.1,70.0,96,29.99,3.0,South,5.8,-,N/A,,Clear,190,2013-09-12 08:53:00
4:53 AM,72.0,70.0,93,29.99,3.0,Calm,Calm,-,N/A,,Mostly Cloudy,0,2013-09-12 09:53:00
5:53 AM,75.0,71.1,87,30.00,5.0,WSW,6.9,-,N/A,,Scattered Clouds,250,2013-09-12 10:53:00
6:53 AM,73.0,70.0,90,30.02,4.0,NW,4.6,-,N/A,,Clear,310,2013-09-12 11:53:00
7:53 AM,75.0,71.1,87,30.03,3.0,WNW,4.6,-,N/A,,Scattered Clouds,300,2013-09-12 12:53:00
8:53 AM,75.9,70.0,82,30.06,6.0,North,10.4,-,N/A,,Haze,350,2013-09-12 13:53:00
9:25 AM,73.4,69.8,88,30.08,1.8,NNW,9.2,-,0.03,Rain,Rain,330,2013-09-12 14:25:00
9:41 AM,73.4,71.6,94,30.06,3.0,NNE,5.8,-,0.09,Rain,Light Rain,30,2013-09-12 14:41:00
9:53 AM,73.0,71.1,93,30.05,6.0,NE,5.8,-,0.09,,Mostly Cloudy,50,2013-09-12 14:53:00
10:53 AM,75.0,69.1,82,30.04,7.0,NW,4.6,-,0.00,,Mostly Cloudy,320,2013-09-12 15:53:00
11:53 AM,75.9,69.1,79,30.03,8.0,West,4.6,-,N/A,,Partly Cloudy,270,2013-09-12 16:53:00
12:53 PM,77.0,69.1,76,30.01,8.0,West,4.6,-,N/A,,Scattered Clouds,280,2013-09-12 17:53:00
1:53 PM,78.1,66.9,68,30.01,10.0,West,6.9,-,0.01,,Partly Cloudy,270,2013-09-12 18:53:00
2:53 PM,79.0,66.9,66,29.99,10.0,WNW,8.1,-,N/A,,Clear,290,2013-09-12 19:53:00
3:53 PM,81.0,64.0,56,29.96,10.0,West,9.2,-,N/A,,Clear,280,2013-09-12 20:53:00
4:53 PM,82.0,62.1,51,29.94,10.0,West,11.5,-,N/A,,Clear,280,2013-09-12 21:53:00
5:53 PM,81.0,63.0,54,29.94,10.0,West,6.9,-,N/A,,Clear,270,2013-09-12 22:53:00
6:53 PM,77.0,63.0,62,29.94,10.0,West,4.6,-,N/A,,Clear,270,2013-09-12 23:53:00
7:53 PM,75.0,63.0,66,29.95,10.0,West,5.8,-,N/A,,Clear,270,2013-09-13 00:53:00
8:53 PM,73.0,59.0,61,29.98,10.0,NNW,10.4,-,N/A,,Clear,330,2013-09-13 01:53:00
9:53 PM,68.0,54.0,61,29.99,10.0,NNW,6.9,-,N/A,,Clear,340,2013-09-13 02:53:00
10:53 PM,68.0,52.0,56,30.01,10.0,North,11.5,-,N/A,,Clear,350,2013-09-13 03:53:00
11:53 PM,66.0,53.1,63,30.01,10.0,North,11.5,-,N/A,,Clear,360,2013-09-13 04:53:00